星链-32900 (STARLINK-32900)

导读

STARLINK-32900是美国SpaceX星链星座的一员,于2025年2月23日发射。星链计划旨在构建全球卫星互联网星座,为全球提供高速宽带网络服务,尤其覆盖偏远地区。该卫星延续星链技术设计,参与低轨卫星通信组网,助力SpaceX持续拓展星座规模,推动全球互联覆盖能力提升。

Basic Information
目录编号:
63093
目录名称:
STARLINK-32900
国际标识:
2025-037S
轨道中心:
EARTH
卫星名称:
星链-32900
卫星全名:
星链-32900 (STARLINK-32900)
卫星状态:
在轨 (已飞行559 天)
发射日期:
2025-02-23 UTC
国别 :
美国 (US)
星等 :
--
Orbit Information
数据来源 国际轨道数据
星历时间: 2026-09-05T12:00:02+0800
4小时前
查看轨道信息
半长轴: 6882.026km
偏心率: 0.0002982
轨道倾角: 70.001°
近地点辐角 266.223°
升交点赤经 261.601°
平近点角 113.855°
近地点: 501.836km
远地点: 505.942km
周期: 94.697分钟
每日圈数: 15.206468
Detailed Information
固有亮度:
5
最大亮度:
2.5
卫星平台:
Starlink V1.0
覆盖范围:
全球
运营商:
太空探索技术公司
运营商所在国:
美国
制造商(研发单位):
太空探索技术公司
制造商所在国:
美国
使用方式:
暂无
Satellite Introduction
Starlink 计划是 SpaceX 推出的全球卫星互联网项目,通过发射低轨道卫星,为全球尤其是偏远地区提供高速、低延迟的互联网服务。自 2019 年起,Starlink 已部署数千颗卫星,旨在缩小全球数字鸿沟,推动互联网普及。该项目还为军事、航空等行业提供通信支持,带来广泛经济效益。
2D Orbit Map
3D Orbit Map
Orbit Altitude Analysis Chart
Orbit Inclination Analysis Chart
Orbit Comprehensive Analysis Chart
View Comprehensive Chart
Conjunction Data List
Event ID Objects TCA Miss Dist (km) Collision Risk Probability Collision Risk Index (CRI) Action
CDM_260907-080405-684206-309321
2026-09-07T
08:04:04+0000
0.473 km
远距离
1.811505E-4 高风险 0.8
CDM_260907-093805-684206-309321
2026-09-07T
09:38:15+0000
0.932 km
远距离
2.561512E-5 中风险 0.63
CDM_260907-061906-309306-697221
2026-09-07T
06:19:03+0000
1.002 km
极远距离
2.42783E-5 中风险 0.63
CDM_260907-075306-309306-697221
2026-09-07T
07:53:15+0000
1.226 km
极远距离
1.199054E-5 中风险 0.57
CDM_260907-082905-781906-309321
2026-09-07T
08:29:59+0000
1.133 km
极远距离
8.19454E-6 低风险 0.53
CDM_260907-084005-806306-309321
2026-09-07T
08:40:40+0000
1.574 km
极远距离
5.183963E-6 低风险 0.49
CDM_260905-223005-996506-309321
2026-09-05T
22:30:45+0000
2.247 km
极远距离
2.137667E-6 低风险 0.42
CDM_260907-180004-283906-309321
2026-09-07T
18:00:08+0000
2.471 km
极远距离
1.820087E-6 低风险 0.4
CDM_260907-092706-309306-697221
2026-09-07T
09:27:27+0000
2.492 km
极远距离
1.613788E-6 低风险 0.39
CDM_260907-074205-781906-309321
2026-09-07T
07:42:54+0000
2.076 km
极远距离
1.337322E-6 低风险 0.38